Time,TemperatureF,DewpointF,PressureIn,WindDirection,WindDirectionDegrees,WindSpeedMPH,WindSpeedGustMPH,Humidity,HourlyPrecipIn,Conditions,Clouds,dailyrainin,SoftwareType,DateUTC
2013-04-16 00:02:00,68.0,12.0,-100.00,SW,214,14.0,19.0,11,-99.99,,,-99.99,,2013-04-16 05:02:00,
2013-04-16 00:12:00,68.0,12.0,-100.00,SW,220,14.0,17.0,11,-99.99,,,-99.99,,2013-04-16 05:12:00,
2013-04-16 00:22:00,66.0,10.0,-100.00,SW,215,10.0,17.0,11,-99.99,,,-99.99,,2013-04-16 05:22:00,
2013-04-16 00:32:00,66.0,10.0,-100.00,SW,220,11.0,19.0,11,-99.99,,,-99.99,,2013-04-16 05:32:00,
2013-04-16 00:42:00,66.0,10.0,-100.00,SW,215,12.0,19.0,11,-99.99,,,-99.99,,2013-04-16 05:42:00,
2013-04-16 00:52:00,68.0,12.0,-100.00,SSW,213,10.0,18.0,11,-99.99,,,-99.99,,2013-04-16 05:52:00,
2013-04-16 01:02:00,68.0,12.0,-100.00,SW,223,10.0,17.0,11,-99.99,,,-99.99,,2013-04-16 06:02:00,
2013-04-16 01:12:00,66.0,10.0,-100.00,SW,231,12.0,15.0,11,-99.99,,,-99.99,,2013-04-16 06:12:00,
2013-04-16 01:22:00,66.0,10.0,-100.00,SW,232,11.0,18.0,11,-99.99,,,-99.99,,2013-04-16 06:22:00,
2013-04-16 01:32:00,66.0,10.0,-100.00,WSW,239,12.0,15.0,11,-99.99,,,-99.99,,2013-04-16 06:32:00,
2013-04-16 01:42:00,66.0,10.0,-100.00,WSW,242,11.0,14.0,11,-99.99,,,-99.99,,2013-04-16 06:42:00,
2013-04-16 01:52:00,66.0,10.0,-100.00,WSW,239,13.0,16.0,11,-99.99,,,-99.99,,2013-04-16 06:52:00,
2013-04-16 02:02:00,66.0,8.0,-100.00,WSW,240,13.0,16.0,10,-99.99,,,-99.99,,2013-04-16 07:02:00,
2013-04-16 02:12:00,68.0,9.0,-100.00,WSW,240,13.0,17.0,10,-99.99,,,-99.99,,2013-04-16 07:12:00,
2013-04-16 02:22:00,66.0,10.0,-100.00,WSW,247,13.0,15.0,11,-99.99,,,-99.99,,2013-04-16 07:22:00,
2013-04-16 02:32:00,66.0,8.0,-100.00,WSW,241,14.0,16.0,10,-99.99,,,-99.99,,2013-04-16 07:32:00,
2013-04-16 02:42:00,66.0,8.0,-100.00,WSW,241,14.0,16.0,10,-99.99,,,-99.99,,2013-04-16 07:42:00,
2013-04-16 02:53:00,68.0,9.0,-100.00,WSW,245,14.0,17.0,10,-99.99,,,-99.99,,2013-04-16 07:53:00,
2013-04-16 03:02:00,68.0,9.0,-100.00,WSW,244,14.0,17.0,10,-99.99,,,-99.99,,2013-04-16 08:02:00,
2013-04-16 03:12:00,68.0,9.0,-100.00,WSW,243,13.0,18.0,10,-99.99,,,-99.99,,2013-04-16 08:12:00,
2013-04-16 03:22:00,68.0,9.0,-100.00,WSW,242,15.0,18.0,10,-99.99,,,-99.99,,2013-04-16 08:22:00,
2013-04-16 03:32:00,68.0,9.0,-100.00,WSW,248,14.0,17.0,10,-99.99,,,-99.99,,2013-04-16 08:32:00,
2013-04-16 03:42:00,68.0,9.0,-100.00,WSW,248,14.0,17.0,10,-99.99,,,-99.99,,2013-04-16 08:42:00,
2013-04-16 03:52:00,66.0,8.0,-100.00,West,261,12.0,14.0,10,-99.99,,,-99.99,,2013-04-16 08:52:00,
2013-04-16 04:02:00,66.0,10.0,-100.00,West,266,13.0,15.0,11,-99.99,,,-99.99,,2013-04-16 09:02:00,
2013-04-16 04:12:00,66.0,10.0,-100.00,West,274,11.0,13.0,11,-99.99,,,-99.99,,2013-04-16 09:12:00,
2013-04-16 04:22:00,66.0,10.0,-100.00,WNW,287,11.0,13.0,11,-99.99,,,-99.99,,2013-04-16 09:22:00,
2013-04-16 04:33:00,66.0,10.0,-100.00,WNW,286,10.0,13.0,11,-99.99,,,-99.99,,2013-04-16 09:33:00,
2013-04-16 04:42:00,66.0,10.0,-100.00,West,279,10.0,14.0,11,-99.99,,,-99.99,,2013-04-16 09:42:00,
2013-04-16 04:52:00,66.0,10.0,-100.00,West,275,10.0,15.0,11,-99.99,,,-99.99,,2013-04-16 09:52:00,
2013-04-16 05:03:00,64.0,9.0,-100.00,West,281,10.0,12.0,11,-99.99,,,-99.99,,2013-04-16 10:03:00,
2013-04-16 05:13:00,66.0,10.0,-100.00,West,270,10.0,12.0,11,-99.99,,,-99.99,,2013-04-16 10:13:00,
2013-04-16 05:23:00,66.0,10.0,-100.00,West,259,9.0,11.0,11,-99.99,,,-99.99,,2013-04-16 10:23:00,
2013-04-16 05:33:00,66.0,10.0,-100.00,WSW,239,5.0,7.0,11,-99.99,,,-99.99,,2013-04-16 10:33:00,
2013-04-16 05:42:00,66.0,10.0,-100.00,WNW,282,5.0,7.0,11,-99.99,,,-99.99,,2013-04-16 10:42:00,
2013-04-16 05:52:00,66.0,10.0,-100.00,WNW,287,6.0,7.0,11,-99.99,,,-99.99,,2013-04-16 10:52:00,
2013-04-16 06:02:00,66.0,8.0,-100.00,WNW,291,7.0,9.0,10,-99.99,,,-99.99,,2013-04-16 11:02:00,
2013-04-16 06:12:00,66.0,10.0,-100.00,NW,304,8.0,8.0,11,-99.99,,,-99.99,,2013-04-16 11:12:00,
2013-04-16 06:22:00,64.0,9.0,-100.00,NW,310,9.0,15.0,11,-99.99,,,-99.99,,2013-04-16 11:22:00,
2013-04-16 06:32:00,64.0,9.0,-100.00,NW,308,10.0,12.0,11,-99.99,,,-99.99,,2013-04-16 11:32:00,
2013-04-16 06:42:00,64.0,9.0,-100.00,NW,310,9.0,12.0,11,-99.99,,,-99.99,,2013-04-16 11:42:00,
2013-04-16 06:52:00,64.0,9.0,-100.00,NW,311,10.0,13.0,11,-99.99,,,-99.99,,2013-04-16 11:52:00,
2013-04-16 07:02:00,64.0,11.0,-100.00,NW,307,11.0,13.0,12,-99.99,,,-99.99,,2013-04-16 12:02:00,
2013-04-16 07:12:00,64.0,11.0,-100.00,NW,313,9.0,15.0,12,-99.99,,,-99.99,,2013-04-16 12:12:00,
2013-04-16 07:22:00,64.0,11.0,-100.00,WNW,301,12.0,15.0,12,-99.99,,,-99.99,,2013-04-16 12:22:00,
2013-04-16 07:32:00,64.0,11.0,-100.00,WNW,297,10.0,13.0,12,-99.99,,,-99.99,,2013-04-16 12:32:00,
2013-04-16 07:42:00,64.0,11.0,-100.00,WNW,299,11.0,13.0,12,-99.99,,,-99.99,,2013-04-16 12:42:00,
2013-04-16 07:52:00,64.0,11.0,-100.00,WNW,293,10.0,13.0,12,-99.99,,,-99.99,,2013-04-16 12:52:00,
2013-04-16 08:02:00,64.0,13.0,-100.00,WNW,296,11.0,14.0,13,-99.99,,,-99.99,,2013-04-16 13:02:00,
2013-04-16 08:12:00,64.0,13.0,-100.00,WNW,303,12.0,17.0,13,-99.99,,,-99.99,,2013-04-16 13:12:00,
2013-04-16 08:22:00,64.0,11.0,-100.00,WNW,296,11.0,13.0,12,-99.99,,,-99.99,,2013-04-16 13:22:00,
2013-04-16 08:32:00,64.0,11.0,-100.00,WNW,291,11.0,13.0,12,-99.99,,,-99.99,,2013-04-16 13:32:00,
2013-04-16 08:42:00,64.0,11.0,-100.00,WNW,290,10.0,12.0,12,-99.99,,,-99.99,,2013-04-16 13:42:00,
2013-04-16 08:52:00,64.0,11.0,-100.00,WNW,290,9.0,12.0,12,-99.99,,,-99.99,,2013-04-16 13:52:00,
2013-04-16 09:02:00,64.0,11.0,-100.00,West,281,8.0,10.0,12,-99.99,,,-99.99,,2013-04-16 14:02:00,
2013-04-16 09:12:00,66.0,12.0,-100.00,WNW,282,9.0,11.0,12,-99.99,,,-99.99,,2013-04-16 14:12:00,
2013-04-16 09:22:00,66.0,12.0,-100.00,WNW,293,7.0,9.0,12,-99.99,,,-99.99,,2013-04-16 14:22:00,
2013-04-16 09:32:00,66.0,12.0,-100.00,WNW,294,8.0,11.0,12,-99.99,,,-99.99,,2013-04-16 14:32:00,
2013-04-16 09:42:00,66.0,12.0,-100.00,NW,305,6.0,9.0,12,-99.99,,,-99.99,,2013-04-16 14:42:00,
2013-04-16 09:52:00,68.0,12.0,-100.00,WNW,297,5.0,9.0,11,-99.99,,,-99.99,,2013-04-16 14:52:00,
2013-04-16 10:02:00,68.0,12.0,-100.00,West,279,4.0,9.0,11,-99.99,,,-99.99,,2013-04-16 15:02:00,
2013-04-16 10:12:00,70.0,13.0,-100.00,West,277,3.0,4.0,11,-99.99,,,-99.99,,2013-04-16 15:12:00,
2013-04-16 10:22:00,70.0,13.0,-100.00,WSW,250,3.0,5.0,11,-99.99,,,-99.99,,2013-04-16 15:22:00,
2013-04-16 10:33:00,72.0,14.0,-100.00,SW,222,3.0,6.0,11,-99.99,,,-99.99,,2013-04-16 15:33:00,
2013-04-16 10:43:00,72.0,12.0,-100.00,WSW,244,4.0,9.0,10,-99.99,,,-99.99,,2013-04-16 15:43:00,
2013-04-16 10:53:00,73.0,14.0,-100.00,SSW,213,4.0,9.0,10,-99.99,,,-99.99,,2013-04-16 15:53:00,
2013-04-16 11:03:00,72.0,12.0,-100.00,SW,235,5.0,9.0,10,-99.99,,,-99.99,,2013-04-16 16:03:00,
2013-04-16 11:13:00,73.0,14.0,-100.00,South,191,8.0,12.0,10,-99.99,,,-99.99,,2013-04-16 16:13:00,
2013-04-16 11:23:00,73.0,14.0,-100.00,South,172,5.0,12.0,10,-99.99,,,-99.99,,2013-04-16 16:23:00,
2013-04-16 11:32:00,73.0,11.0,-100.00,SW,236,9.0,18.0,9,-99.99,,,-99.99,,2013-04-16 16:32:00,
2013-04-16 11:42:00,72.0,10.0,-100.00,SW,215,12.0,19.0,9,-99.99,,,-99.99,,2013-04-16 16:42:00,
2013-04-16 11:52:00,73.0,11.0,-100.00,SSW,208,11.0,21.0,9,-99.99,,,-99.99,,2013-04-16 16:52:00,
2013-04-16 12:02:00,72.0,10.0,-100.00,SW,216,14.0,26.0,9,-99.99,,,-99.99,,2013-04-16 17:02:00,
2013-04-16 12:12:00,72.0,10.0,-100.00,SW,235,10.0,20.0,9,-99.99,,,-99.99,,2013-04-16 17:12:00,
2013-04-16 12:22:00,72.0,10.0,-100.00,SW,214,14.0,22.0,9,-99.99,,,-99.99,,2013-04-16 17:22:00,
2013-04-16 12:32:00,72.0,10.0,-100.00,SSW,211,14.0,21.0,9,-99.99,,,-99.99,,2013-04-16 17:32:00,
2013-04-16 12:43:00,72.0,7.0,-100.00,SW,214,16.0,26.0,8,-99.99,,,-99.99,,2013-04-16 17:43:00,
2013-04-16 12:52:00,73.0,9.0,-100.00,SSW,207,11.0,20.0,8,-99.99,,,-99.99,,2013-04-16 17:52:00,
2013-04-16 13:02:00,73.0,11.0,-100.00,SW,236,12.0,21.0,9,-99.99,,,-99.99,,2013-04-16 18:02:00,
2013-04-16 13:12:00,72.0,10.0,-100.00,SSW,211,4.0,16.0,9,-99.99,,,-99.99,,2013-04-16 18:12:00,
2013-04-16 13:22:00,75.0,10.0,-100.00,SW,219,9.0,18.0,8,-99.99,,,-99.99,,2013-04-16 18:22:00,
2013-04-16 13:32:00,73.0,9.0,-100.00,SSW,208,11.0,22.0,8,-99.99,,,-99.99,,2013-04-16 18:32:00,
2013-04-16 13:42:00,75.0,13.0,-100.00,SW,218,11.0,20.0,9,-99.99,,,-99.99,,2013-04-16 18:42:00,
2013-04-16 13:52:00,75.0,10.0,-100.00,SW,215,12.0,21.0,8,-99.99,,,-99.99,,2013-04-16 18:52:00,
2013-04-16 14:02:00,75.0,10.0,-100.00,SSW,201,10.0,21.0,8,-99.99,,,-99.99,,2013-04-16 19:02:00,
2013-04-16 14:12:00,73.0,11.0,-100.00,SSW,204,8.0,18.0,9,-99.99,,,-99.99,,2013-04-16 19:12:00,
2013-04-16 14:22:00,77.0,14.0,-100.00,SSW,212,7.0,18.0,9,-99.99,,,-99.99,,2013-04-16 19:22:00,
2013-04-16 14:32:00,77.0,14.0,-100.00,South,176,6.0,14.0,9,-99.99,,,-99.99,,2013-04-16 19:32:00,
2013-04-16 14:42:00,77.0,14.0,-100.00,SSW,210,9.0,22.0,9,-99.99,,,-99.99,,2013-04-16 19:42:00,
2013-04-16 14:52:00,75.0,10.0,-100.00,SSW,207,13.0,26.0,8,-99.99,,,-99.99,,2013-04-16 19:52:00,
2013-04-16 15:02:00,77.0,11.0,-100.00,SSW,205,9.0,20.0,8,-99.99,,,-99.99,,2013-04-16 20:02:00,
2013-04-16 15:12:00,77.0,5.0,-100.00,SW,229,16.0,24.0,6,-99.99,,,-99.99,,2013-04-16 20:12:00,
2013-04-16 15:22:00,77.0,5.0,-100.00,SSW,211,11.0,20.0,6,-99.99,,,-99.99,,2013-04-16 20:22:00,
2013-04-16 15:32:00,77.0,8.0,-100.00,SW,222,7.0,14.0,7,-99.99,,,-99.99,,2013-04-16 20:32:00,
2013-04-16 15:42:00,77.0,5.0,-100.00,WSW,243,11.0,25.0,6,-99.99,,,-99.99,,2013-04-16 20:42:00,
2013-04-16 15:52:00,75.0,4.0,-100.00,SW,230,10.0,21.0,6,-99.99,,,-99.99,,2013-04-16 20:52:00,
2013-04-16 16:02:00,77.0,5.0,-100.00,SSW,206,10.0,20.0,6,-99.99,,,-99.99,,2013-04-16 21:02:00,
2013-04-16 16:12:00,77.0,1.0,-100.00,SSW,211,13.0,22.0,5,-99.99,,,-99.99,,2013-04-16 21:12:00,
2013-04-16 16:22:00,79.0,6.0,-100.00,WSW,238,8.0,17.0,6,-99.99,,,-99.99,,2013-04-16 21:22:00,
2013-04-16 16:32:00,77.0,1.0,-100.00,SW,227,12.0,22.0,5,-99.99,,,-99.99,,2013-04-16 21:32:00,
2013-04-16 16:43:00,77.0,1.0,-100.00,SSW,206,7.0,15.0,5,-99.99,,,-99.99,,2013-04-16 21:43:00,
2013-04-16 16:52:00,77.0,1.0,-100.00,SW,215,10.0,22.0,5,-99.99,,,-99.99,,2013-04-16 21:52:00,
2013-04-16 17:02:00,79.0,6.0,-100.00,WSW,251,8.0,19.0,6,-99.99,,,-99.99,,2013-04-16 22:02:00,
2013-04-16 17:13:00,79.0,6.0,-100.00,WSW,238,6.0,15.0,6,-99.99,,,-99.99,,2013-04-16 22:13:00,
2013-04-16 17:22:00,77.0,5.0,-100.00,WSW,238,11.0,25.0,6,-99.99,,,-99.99,,2013-04-16 22:22:00,
2013-04-16 17:33:00,77.0,5.0,-100.00,SW,218,10.0,25.0,6,-99.99,,,-99.99,,2013-04-16 22:33:00,
2013-04-16 17:42:00,77.0,5.0,-100.00,WSW,252,17.0,30.0,6,-99.99,,,-99.99,,2013-04-16 22:42:00,
2013-04-16 17:52:00,77.0,5.0,-100.00,WSW,249,13.0,23.0,6,-99.99,,,-99.99,,2013-04-16 22:52:00,
2013-04-16 18:02:00,79.0,6.0,-100.00,SW,221,9.0,21.0,6,-99.99,,,-99.99,,2013-04-16 23:02:00,
2013-04-16 18:12:00,79.0,6.0,-100.00,West,273,8.0,23.0,6,-99.99,,,-99.99,,2013-04-16 23:12:00,
2013-04-16 18:22:00,77.0,5.0,-100.00,WSW,257,15.0,28.0,6,-99.99,,,-99.99,,2013-04-16 23:22:00,
2013-04-16 18:32:00,77.0,5.0,-100.00,WSW,244,16.0,31.0,6,-99.99,,,-99.99,,2013-04-16 23:32:00,
2013-04-16 18:42:00,77.0,5.0,-100.00,SSW,211,10.0,19.0,6,-99.99,,,-99.99,,2013-04-16 23:42:00,
2013-04-16 18:52:00,77.0,5.0,-100.00,SSW,211,10.0,19.0,6,-99.99,,,-99.99,,2013-04-16 23:52:00,
2013-04-16 19:02:00,77.0,5.0,-100.00,SSW,211,10.0,19.0,6,-99.99,,,-99.99,,2013-04-17 00:02:00,
2013-04-16 19:12:00,77.0,5.0,-100.00,SSW,211,10.0,19.0,6,-99.99,,,-99.99,,2013-04-17 00:12:00,
2013-04-16 21:02:00,73.0,2.0,-100.00,SW,215,14.0,19.0,6,-99.99,,,-99.99,,2013-04-17 02:02:00,
2013-04-16 21:12:00,73.0,2.0,-100.00,SW,229,14.0,17.0,6,-99.99,,,-99.99,,2013-04-17 02:12:00,
2013-04-16 21:22:00,73.0,2.0,-100.00,SW,229,14.0,17.0,6,-99.99,,,-99.99,,2013-04-17 02:22:00,
2013-04-16 21:32:00,73.0,2.0,-100.00,SSW,212,11.0,15.0,6,-99.99,,,-99.99,,2013-04-17 02:32:00,
2013-04-16 21:42:00,72.0,1.0,-100.00,SSW,207,9.0,13.0,6,-99.99,,,-99.99,,2013-04-17 02:42:00,
2013-04-16 21:52:00,72.0,1.0,-100.00,SSW,205,9.0,13.0,6,-99.99,,,-99.99,,2013-04-17 02:52:00,
2013-04-16 22:02:00,72.0,1.0,-100.00,SSW,196,7.0,10.0,6,-99.99,,,-99.99,,2013-04-17 03:02:00,
2013-04-16 22:12:00,72.0,1.0,-100.00,SSW,197,7.0,16.0,6,-99.99,,,-99.99,,2013-04-17 03:12:00,
2013-04-16 22:22:00,72.0,1.0,-100.00,South,190,5.0,7.0,6,-99.99,,,-99.99,,2013-04-17 03:22:00,
2013-04-16 22:33:00,72.0,1.0,-100.00,SSW,209,8.0,12.0,6,-99.99,,,-99.99,,2013-04-17 03:33:00,
2013-04-16 22:42:00,72.0,1.0,-100.00,SSW,209,10.0,14.0,6,-99.99,,,-99.99,,2013-04-17 03:42:00,
2013-04-16 22:53:00,72.0,-3.0,-100.00,SW,215,11.0,14.0,5,-99.99,,,-99.99,,2013-04-17 03:53:00,
2013-04-16 23:03:00,72.0,-3.0,-100.00,SSW,212,13.0,17.0,5,-99.99,,,-99.99,,2013-04-17 04:03:00,
2013-04-16 23:13:00,72.0,-3.0,-100.00,SSW,210,13.0,16.0,5,-99.99,,,-99.99,,2013-04-17 04:13:00,
2013-04-16 23:22:00,72.0,-3.0,-100.00,SW,216,14.0,18.0,5,-99.99,,,-99.99,,2013-04-17 04:22:00,
2013-04-16 23:33:00,73.0,-2.0,-100.00,SW,216,14.0,18.0,5,-99.99,,,-99.99,,2013-04-17 04:33:00,
2013-04-16 23:42:00,73.0,-2.0,-100.00,SW,215,15.0,20.0,5,-99.99,,,-99.99,,2013-04-17 04:42:00,
2013-04-16 23:52:00,73.0,-2.0,-100.00,SSW,213,14.0,19.0,5,-99.99,,,-99.99,,2013-04-17 04:52:00,